星链-34916 (STARLINK-34916)

导读

STARLINK-34916是美国于2025年8月31日发射的Starlink星座卫星,该卫星属于SpaceX公司部署的低轨互联网卫星星座计划成员,主要用于提供全球范围的高速卫星互联网服务,该计划通过批量发射低轨卫星,逐步构建覆盖全球的天基通信网络,助力偏远地区通信、移动网络覆盖等场景应用。

基本信息
目录编号:
65427
目录名称:
STARLINK-34916
国际标识:
2025-192Z
轨道中心:
EARTH
卫星名称:
星链-34916
卫星全名:
星链-34916 (STARLINK-34916)
卫星状态:
在轨 (已飞行286 天)
发射日期:
2025-08-31 UTC
国别 :
美国 (US)
星等 :
--
轨道信息
数据来源 国际轨道数据 AOE轨道数据
星历时间 2026-06-13T13:19:36+0800
10小时前
查看轨道信息
2026-06-12T05:00:00+0800
1天前
查看轨道信息
半长轴 6853.278km 6853.401km
偏心率 0.0002493 0.0001408
轨道倾角 53.159° 53.157°
近地点辐角 92.559° 77.091°
升交点赤经 148.393° 154.652°
平近点角 267.570° 58.951°
近地点 473.432km 474.299km
远地点 476.85km 476.229km
周期 94.104分钟 94.106分钟
每日圈数 15.30225 15.301838
详细信息
固有亮度:
5
最大亮度:
2.5
卫星平台:
Starlink V1.0
覆盖范围:
全球
运营商:
太空探索技术公司
运营商所在国:
美国
制造商(研发单位):
太空探索技术公司
制造商所在国:
美国
使用方式:
暂无
卫星简介
Starlink 计划是 SpaceX 推出的全球卫星互联网项目,通过发射低轨道卫星,为全球尤其是偏远地区提供高速、低延迟的互联网服务。自 2019 年起,Starlink 已部署数千颗卫星,旨在缩小全球数字鸿沟,推动互联网普及。该项目还为军事、航空等行业提供通信支持,带来广泛经济效益。
2D轨道图
3D轨道图
轨道高度分析图
轨道倾角分析图
轨道综合分析图
查看轨道综合分析图